Location: Grust
(42.8833°N, 0.0333°W)
Time: 20:16:36
(UTC+00:00)

Cosmos 220 Rocket - Pass Details

Date: 25 October 2020
Orbit: 574 x 618 km, 74.0° (Epoch: 22 November)

Event Time Altitude Azimuth Distance (km) Brightness Sun altitude
Rises 18:42:02 0° 185° (S) 2,817 7.5 -19.0°
Reaches altitude 10° 18:44:16 10° 180° (S) 1,928 6.6 -19.4°
Enters shadow 18:48:14 49° 116° (ESE) 777 4.1 -20.1°
